Time,TemperatureF,DewpointF,PressureIn,WindDirection,WindDirectionDegrees,WindSpeedMPH,WindSpeedGustMPH,Humidity,HourlyPrecipIn,Conditions,Clouds,dailyrainin,SolarRadiationWatts/m^2,SoftwareType,DateUTC
2013-02-28 00:04:00,39.0,-99.9,30.18,NNE,22,6.0,-999.0,0,-99.99,,,0.00,0,weatherlink.com 1.10,2013-02-27 23:04:00,
2013-02-28 00:19:00,38.6,-99.9,30.19,NNE,22,6.0,-999.0,0,-99.99,,,0.00,0,weatherlink.com 1.10,2013-02-27 23:19:00,
2013-02-28 00:34:00,38.3,-99.9,30.18,NNE,22,7.0,-999.0,0,-99.99,,,0.00,0,weatherlink.com 1.10,2013-02-27 23:34:00,
2013-02-28 00:49:00,38.1,-99.9,30.19,NNE,20,8.0,-999.0,0,-99.99,,,0.00,0,weatherlink.com 1.10,2013-02-27 23:49:00,
2013-02-28 01:04:00,38.6,-99.9,30.19,NNE,27,9.0,-999.0,0,-99.99,,,0.00,0,weatherlink.com 1.10,2013-02-28 00:04:00,
2013-02-28 01:19:00,38.8,-99.9,30.19,NNE,22,8.0,-999.0,0,-99.99,,,0.00,0,weatherlink.com 1.10,2013-02-28 00:19:00,
2013-02-28 01:35:00,38.1,-99.9,30.19,NNE,19,8.0,-999.0,0,-99.99,,,0.00,0,weatherlink.com 1.10,2013-02-28 00:35:00,
2013-02-28 01:50:00,37.9,-99.9,30.19,NNE,20,7.0,-999.0,0,-99.99,,,0.00,0,weatherlink.com 1.10,2013-02-28 00:50:00,
2013-02-28 02:05:00,38.1,-99.9,30.19,NNE,19,6.0,-999.0,0,-99.99,,,0.00,0,weatherlink.com 1.10,2013-02-28 01:05:00,
2013-02-28 02:20:00,37.8,-99.9,30.19,NNE,18,4.0,-999.0,0,-99.99,,,0.00,0,weatherlink.com 1.10,2013-02-28 01:20:00,
2013-02-28 02:35:00,37.0,-99.9,30.18,NNE,18,6.0,-999.0,0,-99.99,,,0.00,0,weatherlink.com 1.10,2013-02-28 01:35:00,
2013-02-28 02:50:00,36.7,-99.9,30.18,NNE,21,6.0,-999.0,0,-99.99,,,0.00,0,weatherlink.com 1.10,2013-02-28 01:50:00,
2013-02-28 03:05:00,36.5,-99.9,30.18,NNE,22,5.0,-999.0,0,-99.99,,,0.00,0,weatherlink.com 1.10,2013-02-28 02:05:00,
2013-02-28 03:20:00,36.4,-99.9,30.17,NNE,22,3.0,-999.0,0,-99.99,,,0.00,0,weatherlink.com 1.10,2013-02-28 02:20:00,
2013-02-28 03:35:00,36.2,-99.9,30.16,NNE,22,4.0,-999.0,0,-99.99,,,0.00,0,weatherlink.com 1.10,2013-02-28 02:35:00,
2013-02-28 03:50:00,36.3,-99.9,30.16,NNE,22,4.0,-999.0,0,-99.99,,,0.00,0,weatherlink.com 1.10,2013-02-28 02:50:00,
2013-02-28 04:05:00,36.3,-99.9,30.16,NNE,22,2.0,-999.0,0,-99.99,,,0.00,0,weatherlink.com 1.10,2013-02-28 03:05:00,
2013-02-28 04:20:00,36.9,-99.9,30.16,NNE,22,4.0,-999.0,0,-99.99,,,0.00,0,weatherlink.com 1.10,2013-02-28 03:20:00,
2013-02-28 04:35:00,36.3,-99.9,30.16,NE,49,2.0,-999.0,0,-99.99,,,0.00,0,weatherlink.com 1.10,2013-02-28 03:35:00,
2013-02-28 04:51:00,36.4,-99.9,30.16,NNE,17,2.0,-999.0,0,-99.99,,,0.00,0,weatherlink.com 1.10,2013-02-28 03:51:00,
2013-02-28 05:06:00,35.5,-99.9,30.16,NNE,14,1.0,-999.0,0,-99.99,,,0.00,0,weatherlink.com 1.10,2013-02-28 04:06:00,
2013-02-28 05:21:00,34.8,-99.9,30.16,NNE,14,3.0,-999.0,0,-99.99,,,0.00,0,weatherlink.com 1.10,2013-02-28 04:21:00,
2013-02-28 05:36:00,34.9,-99.9,30.16,NNE,14,1.0,-999.0,0,-99.99,,,0.00,0,weatherlink.com 1.10,2013-02-28 04:36:00,
2013-02-28 05:51:00,35.2,-99.9,30.16,NNE,24,6.0,-999.0,0,-99.99,,,0.00,0,weatherlink.com 1.10,2013-02-28 04:51:00,
2013-02-28 06:06:00,35.6,-99.9,30.16,NNE,19,6.0,-999.0,0,-99.99,,,0.00,0,weatherlink.com 1.10,2013-02-28 05:06:00,
2013-02-28 06:21:00,35.4,-99.9,30.16,NE,34,4.0,-999.0,0,-99.99,,,0.00,0,weatherlink.com 1.10,2013-02-28 05:21:00,
2013-02-28 06:36:00,35.2,-99.9,30.16,NNE,22,4.0,-999.0,0,-99.99,,,0.00,0,weatherlink.com 1.10,2013-02-28 05:36:00,
2013-02-28 06:51:00,35.1,-99.9,30.16,NNE,19,6.0,-999.0,0,-99.99,,,0.00,9,weatherlink.com 1.10,2013-02-28 05:51:00,
2013-02-28 07:06:00,35.3,-99.9,30.17,NNE,24,4.0,-999.0,0,-99.99,,,0.00,32,weatherlink.com 1.10,2013-02-28 06:06:00,
2013-02-28 07:32:00,36.4,-99.9,30.18,NE,35,4.0,-999.0,0,-99.99,,,0.00,104,weatherlink.com 1.10,2013-02-28 06:32:00,
2013-02-28 07:52:00,37.0,-99.9,30.19,NNE,26,4.0,-999.0,0,-99.99,,,0.00,162,weatherlink.com 1.10,2013-02-28 06:52:00,
2013-02-28 08:07:00,37.4,-99.9,30.19,NNE,22,5.0,-999.0,0,-99.99,,,0.00,214,weatherlink.com 1.10,2013-02-28 07:07:00,
2013-02-28 08:22:00,38.5,-99.9,30.20,NNE,17,4.0,-999.0,0,-99.99,,,0.00,262,weatherlink.com 1.10,2013-02-28 07:22:00,
2013-02-28 08:37:00,39.9,-99.9,30.21,NNE,24,5.0,-999.0,0,-99.99,,,0.00,315,weatherlink.com 1.10,2013-02-28 07:37:00,
2013-02-28 08:52:00,41.2,-99.9,30.21,NNE,26,6.0,-999.0,0,-99.99,,,0.00,359,weatherlink.com 1.10,2013-02-28 07:52:00,
2013-02-28 09:07:00,42.2,-99.9,30.21,NNE,22,6.0,-999.0,0,-99.99,,,0.00,406,weatherlink.com 1.10,2013-02-28 08:07:00,
2013-02-28 09:22:00,43.6,-99.9,30.21,NNE,22,6.0,-999.0,0,-99.99,,,0.00,450,weatherlink.com 1.10,2013-02-28 08:22:00,
2013-02-28 09:37:00,45.5,-99.9,30.21,NNE,22,3.0,-999.0,0,-99.99,,,0.00,483,weatherlink.com 1.10,2013-02-28 08:37:00,
2013-02-28 09:52:00,48.4,-99.9,30.21,NNE,22,3.0,-999.0,0,-99.99,,,0.00,524,weatherlink.com 1.10,2013-02-28 08:52:00,
2013-02-28 10:07:00,49.0,-99.9,30.21,North,5,3.0,-999.0,0,-99.99,,,0.00,548,weatherlink.com 1.10,2013-02-28 09:07:00,
2013-02-28 10:22:00,50.1,-99.9,30.21,NNW,342,3.0,-999.0,0,-99.99,,,0.00,568,weatherlink.com 1.10,2013-02-28 09:22:00,
2013-02-28 10:37:00,51.7,-99.9,30.21,NNW,342,2.0,-999.0,0,-99.99,,,0.00,598,weatherlink.com 1.10,2013-02-28 09:37:00,
2013-02-28 10:53:00,52.9,-99.9,30.21,North,5,3.0,-999.0,0,-99.99,,,0.00,636,weatherlink.com 1.10,2013-02-28 09:53:00,
2013-02-28 11:08:00,54.0,-99.9,30.21,ESE,114,6.0,-999.0,0,-99.99,,,0.00,647,weatherlink.com 1.10,2013-02-28 10:08:00,
2013-02-28 11:23:00,55.0,-99.9,30.20,SSE,155,8.0,-999.0,0,-99.99,,,0.00,141,weatherlink.com 1.10,2013-02-28 10:23:00,
2013-02-28 11:38:00,55.6,-25.0,30.20,South,169,6.0,-999.0,3,-99.99,,,0.00,670,weatherlink.com 1.10,2013-02-28 10:38:00,
2013-02-28 11:53:00,55.0,6.0,30.20,ESE,123,8.0,-999.0,14,-99.99,,,0.00,708,weatherlink.com 1.10,2013-02-28 10:53:00,
2013-02-28 12:08:00,55.8,7.0,30.19,ESE,116,7.0,-999.0,14,-99.99,,,0.00,761,weatherlink.com 1.10,2013-02-28 11:08:00,
2013-02-28 12:23:00,55.4,5.0,30.18,East,94,11.0,-999.0,13,-99.99,,,0.00,742,weatherlink.com 1.10,2013-02-28 11:23:00,
2013-02-28 12:38:00,55.8,5.0,30.18,South,173,5.0,-999.0,13,-99.99,,,0.00,807,weatherlink.com 1.10,2013-02-28 11:38:00,
2013-02-28 13:01:00,55.6,-32.0,30.17,SW,215,8.0,-999.0,2,-99.99,,,0.00,752,weatherlink.com 1.10,2013-02-28 12:01:00,
2013-02-28 13:08:00,54.2,-99.9,30.16,SW,215,5.0,-999.0,0,-99.99,,,0.00,137,weatherlink.com 1.10,2013-02-28 12:08:00,
2013-02-28 13:23:00,55.2,8.0,30.16,East,95,4.0,-999.0,15,-99.99,,,0.00,719,weatherlink.com 1.10,2013-02-28 12:23:00,
2013-02-28 13:38:00,56.8,4.0,30.15,South,191,6.0,-999.0,12,-99.99,,,0.00,717,weatherlink.com 1.10,2013-02-28 12:38:00,
2013-02-28 13:53:00,57.3,-2.0,30.15,SW,220,12.0,-999.0,9,-99.99,,,0.00,675,weatherlink.com 1.10,2013-02-28 12:53:00,
2013-02-28 14:08:00,56.2,10.0,30.15,SW,226,3.0,-999.0,16,-99.99,,,0.00,427,weatherlink.com 1.10,2013-02-28 13:08:00,
2013-02-28 14:24:00,56.1,-99.9,30.14,SW,219,4.0,-999.0,0,-99.99,,,0.00,603,weatherlink.com 1.10,2013-02-28 13:24:00,
2013-02-28 14:39:00,57.0,14.0,30.14,South,184,4.0,-999.0,18,-99.99,,,0.00,534,weatherlink.com 1.10,2013-02-28 13:39:00,
2013-02-28 15:21:00,57.1,22.0,30.13,SSW,192,3.0,-999.0,26,-99.99,,,0.00,410,weatherlink.com 1.10,2013-02-28 14:21:00,
2013-02-28 15:39:00,57.5,22.0,30.12,South,178,2.0,-999.0,25,-99.99,,,0.00,352,weatherlink.com 1.10,2013-02-28 14:39:00,
2013-02-28 15:54:00,56.1,21.0,30.12,SW,218,7.0,-999.0,26,-99.99,,,0.00,311,weatherlink.com 1.10,2013-02-28 14:54:00,
2013-02-28 16:09:00,55.3,22.0,30.12,SW,216,3.0,-999.0,27,-99.99,,,0.00,264,weatherlink.com 1.10,2013-02-28 15:09:00,
2013-02-28 17:21:00,52.3,-99.9,30.12,South,188,3.0,-999.0,0,-99.99,,,0.00,37,weatherlink.com 1.10,2013-02-28 16:21:00,
2013-02-28 17:40:00,51.5,-99.9,30.12,South,186,3.0,-999.0,0,-99.99,,,0.00,19,weatherlink.com 1.10,2013-02-28 16:40:00,
2013-02-28 17:55:00,50.7,-99.9,30.12,South,186,1.0,-999.0,0,-99.99,,,0.00,7,weatherlink.com 1.10,2013-02-28 16:55:00,
2013-02-28 18:10:00,49.5,-99.9,30.13,South,186,1.0,-999.0,0,-99.99,,,0.00,0,weatherlink.com 1.10,2013-02-28 17:10:00,
2013-02-28 18:25:00,48.5,-99.9,30.13,South,186,3.0,-999.0,0,-99.99,,,0.00,0,weatherlink.com 1.10,2013-02-28 17:25:00,
2013-02-28 18:40:00,48.0,-99.9,30.13,South,186,0.0,-999.0,0,-99.99,,,0.00,0,weatherlink.com 1.10,2013-02-28 17:40:00,
2013-02-28 18:55:00,47.2,-99.9,30.13,South,186,0.0,-999.0,0,-99.99,,,0.00,0,weatherlink.com 1.10,2013-02-28 17:55:00,
2013-02-28 19:10:00,46.9,-99.9,30.13,South,186,0.0,-999.0,0,-99.99,,,0.00,0,weatherlink.com 1.10,2013-02-28 18:10:00,
2013-02-28 19:25:00,45.8,-99.9,30.13,South,186,0.0,-999.0,0,-99.99,,,0.00,0,weatherlink.com 1.10,2013-02-28 18:25:00,
2013-02-28 19:40:00,44.1,-99.9,30.13,South,186,2.0,-999.0,0,-99.99,,,0.00,0,weatherlink.com 1.10,2013-02-28 18:40:00,
2013-02-28 19:55:00,43.3,-99.9,30.13,South,186,3.0,-999.0,0,-99.99,,,0.00,0,weatherlink.com 1.10,2013-02-28 18:55:00,
2013-02-28 20:10:00,42.8,-99.9,30.13,SE,139,4.0,-999.0,0,-99.99,,,0.00,0,weatherlink.com 1.10,2013-02-28 19:10:00,
2013-02-28 20:25:00,43.4,-99.9,30.13,SE,128,5.0,-999.0,0,-99.99,,,0.00,0,weatherlink.com 1.10,2013-02-28 19:25:00,
2013-02-28 20:40:00,44.1,-99.9,30.13,SE,128,5.0,-999.0,0,-99.99,,,0.00,0,weatherlink.com 1.10,2013-02-28 19:40:00,
2013-02-28 20:55:00,44.2,-99.9,30.14,ESE,107,5.0,-999.0,0,-99.99,,,0.00,0,weatherlink.com 1.10,2013-02-28 19:55:00,
2013-02-28 21:11:00,44.6,-99.9,30.13,East,82,3.0,-999.0,0,-99.99,,,0.00,0,weatherlink.com 1.10,2013-02-28 20:11:00,
2013-02-28 21:26:00,44.1,-99.9,30.14,East,82,3.0,-999.0,0,-99.99,,,0.00,0,weatherlink.com 1.10,2013-02-28 20:26:00,
2013-02-28 21:41:00,42.8,-99.9,30.14,East,82,2.0,-999.0,0,-99.99,,,0.00,0,weatherlink.com 1.10,2013-02-28 20:41:00,
2013-02-28 21:56:00,42.2,-99.9,30.14,East,82,3.0,-999.0,0,-99.99,,,0.00,0,weatherlink.com 1.10,2013-02-28 20:56:00,
2013-02-28 22:11:00,42.3,-99.9,30.13,East,82,3.0,-999.0,0,-99.99,,,0.00,0,weatherlink.com 1.10,2013-02-28 21:11:00,
2013-02-28 22:26:00,41.9,-99.9,30.13,East,82,2.0,-999.0,0,-99.99,,,0.00,0,weatherlink.com 1.10,2013-02-28 21:26:00,
2013-02-28 22:41:00,42.1,-99.9,30.13,East,82,4.0,-999.0,0,-99.99,,,0.00,0,weatherlink.com 1.10,2013-02-28 21:41:00,
2013-02-28 22:56:00,44.1,-99.9,30.13,East,82,4.0,-999.0,0,-99.99,,,0.00,0,weatherlink.com 1.10,2013-02-28 21:56:00,
2013-02-28 23:11:00,44.9,-99.9,30.13,East,82,5.0,-999.0,0,-99.99,,,0.00,0,weatherlink.com 1.10,2013-02-28 22:11:00,
2013-02-28 23:25:00,42.7,-99.9,30.12,East,82,3.0,-999.0,0,-99.99,,,0.00,0,weatherlink.com 1.10,2013-02-28 22:25:00,
2013-02-28 23:40:00,44.8,-99.9,30.12,East,82,5.0,-999.0,0,-99.99,,,0.00,0,weatherlink.com 1.10,2013-02-28 22:40:00,
2013-02-28 23:55:00,42.3,-99.9,30.12,East,82,2.0,-999.0,0,-99.99,,,0.00,0,weatherlink.com 1.10,2013-02-28 22:55:00,